Regional Weather Roundup
Issued by NWS

Home | Current Version | Previous Version | Graphics & Text | Print | Product List | Glossary On
Versions: 1 2 3 4 5 6 7 8 9 10 11 12 13 14 15 16 17 18 19 20 21 22 23 24 25 26 27 28 29 30 31 32 33 34 35 36 37 38 39 40 41 42 43 44 45 46 47 48 49 50
000
ASUS44 KMEG 301210
RWRTN
TENNESSEE HOURLY STATE WEATHER ROUNDUP
NATIONAL WEATHER SERVICE MEMPHIS TN
700 AM CDT THU JUL 30 2015

TNZ002-004-019-021-049-052-054-088>092-301300-
WEST TENNESSEE

CITY           SKY/WX    TMP DP  RH WIND       PRES   REMARKS
MEMPHIS INTL   PTCLDY    81  73  76 N12       30.07R
NWS MEMPHIS      N/A     79 N/A N/A MISG        N/A
JACKSON        SUNNY     78  69  73 N10       30.08R
DYERSBURG        N/A    N/A N/A N/A MISG        N/A
PARIS          PTSUNNY   72  63  73 NE7       30.11R
$$

TNZ008-025-027-028-033-062-065-066-301300-
NORTH MIDDLE TENNESSEE

CITY           SKY/WX    TMP DP  RH WIND       PRES   REMARKS
NASHVILLE      PTSUNNY   77  68  73 N12       30.07R
CLARKSVILLE    MOSUNNY   72  64  76 N5        30.09R
SMYRNA         PTSUNNY   78  71  79 N9        30.07R
CROSSVILLE     CLOUDY    73  69  87 N6        30.10R
$$

TNZ061-075-076-078-094-096-097-301300-
SOUTH MIDDLE TENNESSEE

CITY           SKY/WX    TMP DP  RH WIND       PRES   REMARKS
FAYETTEVILLE   SUNNY     73  73 100 N6        30.06R
TULLAHOMA      CLOUDY    73  70  88 N5        30.08R
WINCHESTER     CLOUDY    73  72  94 CALM      30.06R
MCMINNVILLE    CLOUDY    73  73 100 CALM      30.07R
COLUMBIA       SUNNY     75  75 100 N3        30.06R
SHELBYVILLE    CLOUDY    75  73  94 N7        30.07R
$$

TNZ017-018-042-046-047-301300-
NORTHEAST TENNESSEE

CITY           SKY/WX    TMP DP  RH WIND       PRES   REMARKS
TRI CITIES     CLOUDY    73  71  93 CALM      30.05R
ELIZABETHTON   MOSUNNY   73  70  88 CALM      30.05S
$$

TNZ012-013-036-069-073-074-301300-
CENTRAL EAST TENNESSEE

CITY           SKY/WX    TMP DP  RH WIND       PRES   REMARKS
KNOXVILLE      MOSUNNY   78  72  81 N3        30.03R
OAK RIDGE      SUNNY     76  72  87 CALM      30.04R
GATLINBURG     MOSUNNY   75  72  88 CALM      30.03R
MORRISTOWN     SUNNY     75  72  88 CALM      30.05R
$$

TNZ083-085-099-301300-
SOUTHEAST TENNESSEE

CITY           SKY/WX    TMP DP  RH WIND       PRES   REMARKS
CHATTANOOGA    MOSUNNY   78  71  79 CALM      30.02R
$$

SKY/WX REPORTED AS FAIR MEANS FEW OR NO CLOUDS BELOW
12 THOUSAND FEET.



USA.gov is the U.S. government's official web portal to all federal, state and local government web resources and services.